This is the latest recevied weather packets stored in our database for station/object 4S6DRJ-13. If no packets are shown the sender has not sent any weather packets the latest 10 day(s).
| Time | Temp. | Humidity | Pressure | Rain* | Wind** | Luminosity | Snow |
|---|---|---|---|---|---|---|---|
| 1788240943 | 31.11° C | 73% | 1009.6 hPa | 0 mm | 1.34 m/s, 277° | 259 W/m² | - |
| 1788240882 | 31.11° C | 72% | 1009.8 hPa | 0 mm | 1.34 m/s, 297° | 234 W/m² | - |
| 1788240820 | 31.11° C | 71% | 1009.6 hPa | 0 mm | 1.34 m/s, 356° | 236 W/m² | - |
| 1788240759 | 31.11° C | 71% | 1009.6 hPa | 0 mm | 1.34 m/s, 222° | 271 W/m² | - |
| 1788240698 | 31.11° C | 71% | 1009.7 hPa | 0 mm | 0.89 m/s, 277° | 494 W/m² | - |
| 1788240637 | 31.11° C | 71% | 1009.5 hPa | 0 mm | 0.89 m/s, 280° | 559 W/m² | - |
| 1788240576 | 31.11° C | 71% | 1009.5 hPa | 0 mm | 0.89 m/s, 279° | 1115 W/m² | - |
| 1788240515 | 31.11° C | 71% | 1009.5 hPa | 0 mm | 1.79 m/s, 273° | 1133 W/m² | - |
| 1788240454 | 31.11° C | 70% | 1009.6 hPa | 0 mm | 2.24 m/s, 182° | 495 W/m² | - |
| 1788240332 | 31.11° C | 70% | 1009.7 hPa | 0 mm | 2.68 m/s, 285° | 432 W/m² | - |
| 1788240271 | 31.11° C | 70% | 1009.6 hPa | 0 mm | 2.24 m/s, 337° | 1114 W/m² | - |
| 1788240210 | 31.11° C | 70% | 1009.5 hPa | 0 mm | 2.68 m/s, 327° | 1119 W/m² | - |
| 1788240148 | 30.56° C | 71% | 1009.6 hPa | 0 mm | 2.24 m/s, 135° | 1115 W/m² | - |
| 1788240088 | 30.56° C | 70% | 1009.7 hPa | 0 mm | 2.68 m/s, 289° | 1111 W/m² | - |
| 1788240027 | 30.56° C | 71% | 1009.7 hPa | 0 mm | 1.79 m/s, 296° | 674 W/m² | - |
| 1788239967 | 30.56° C | 71% | 1009.5 hPa | 0 mm | 1.79 m/s, 264° | 1114 W/m² | - |
| 1788239906 | 30° C | 72% | 1009.4 hPa | 0 mm | 1.79 m/s, 249° | 1106 W/m² | - |
| 1788239844 | 30° C | 73% | 1009.5 hPa | 0 mm | 1.79 m/s, 241° | 731 W/m² | - |
| 1788239784 | 30° C | 73% | 1009.6 hPa | 0 mm | 4.92 m/s, 236° | 1117 W/m² | - |
| 1788239722 | 30° C | 73% | 1009.6 hPa | 0 mm | 2.68 m/s, 325° | 455 W/m² | - |
| 1788239661 | 30° C | 74% | 1009.7 hPa | 0 mm | 2.68 m/s, 245° | 1123 W/m² | - |
| 1788239600 | 30° C | 74% | 1009.6 hPa | 0 mm | 3.13 m/s, 284° | 781 W/m² | - |
| 1788239540 | 30.56° C | 73% | 1009.5 hPa | 0 mm | 4.47 m/s, 86° | 483 W/m² | - |
| 1788239479 | 30.56° C | 73% | 1009.6 hPa | 0 mm | 2.24 m/s, 187° | 534 W/m² | - |
| 1788239417 | 30.56° C | 72% | 1009.4 hPa | 0 mm | 4.02 m/s, 192° | 308 W/m² | - |
* Rain latest hour (hover to see other rain measurements)
** Current wind speed in m/s (hover to see current wind gust speed)